Weather History for Fremont, NE

Change the Weather History Date:

Sunday, January 20, 2013

  Actual Average Record
Temperature  
Mean Temperature 16 °F -  
Max Temperature 20 °F 33 °F 57 °F (1964)
Min Temperature 13 °F 14 °F -18 °F (1962)
Degree Days  
Heating Degree Days 48    
Moisture  
Dew Point 9 °F    
Average Humidity 73    
Maximum Humidity 89    
Minimum Humidity 55    
Precipitation  
Precipitation 0.00 in - - ()
Sea Level Pressure  
Sea Level Pressure 30.37 in    
Wind  
Wind Speed 6 mph (NNW)    
Max Wind Speed 12 mph    
Max Gust Speed 17 mph    
Visibility 10 miles    
Events Snow    
Averages and records for this station are not official NWS values.
T = Trace of Precipitation, MM = Missing Value Source: NWS Daily Summary

Daily Weather History Graph

Daily Weather History Graph

Search for Another Location

Airport:

Trip Planner

Search our weather history database for the weather conditions in past years. The results will help you decide how hot, cold, wet, or windy it might be!

Date:

Astronomy

Jan. 20, 2013 Rise Set
Actual Time 7:47 AM CST 5:27 PM CST
Civil Twilight 7:17 AM CST 5:57 PM CST
Nautical Twilight 6:43 AM CST 6:31 PM CST
Astronomical Twilight 6:10 AM CST 7:04 PM CST
Moon 12:29 PM CST (1/20) 2:20 AM CST (1/20)
Length of Visible Light 10h 40m
Length of Day
9h 40m
Waxing Gibbous, 66% of the Moon is Illuminated
Jan 20
Waxing Gibbous
Jan 26
Full
Feb 3
Last Quarter
Feb 10
New
Feb 17
First Quarter

Hourly Weather History & Observations

Time (CST) Temp. Windchill Dew Point Humidity Pressure Visibility Wind Dir Wind Speed Gust Speed Precip Events Conditions
12:15 AM 20.5 °F 10.8 °F 12.2 °F 70% 30.36 in 10.0 mi NNW 8.1 mph - N/A   Clear
12:35 AM 19.9 °F 12.1 °F 12.0 °F 71% 30.35 in 10.0 mi North 5.8 mph - N/A   Clear
12:55 AM 19.4 °F 7.2 °F 10.6 °F 69% 30.33 in 10.0 mi North 11.5 mph 17.3 mph N/A   Clear
1:15 AM 18.9 °F 9.8 °F 10.6 °F 70% 30.33 in 10.0 mi North 6.9 mph - N/A   Clear
1:35 AM 18.3 °F 8.2 °F 10.6 °F 72% 30.33 in 10.0 mi North 8.1 mph - N/A   Clear
1:55 AM 17.8 °F 8.5 °F 10.4 °F 73% 30.35 in 10.0 mi NNW 6.9 mph - N/A   Clear
2:15 AM 17.6 °F 8.2 °F 8.4 °F 67% 30.34 in 10.0 mi NNW 6.9 mph - N/A   Clear
2:35 AM 17.1 °F 6.6 °F 7.3 °F 66% 30.35 in 10.0 mi North 8.1 mph - N/A   Clear
2:55 AM 16.7 °F 7.2 °F 6.6 °F 65% 30.34 in 10.0 mi North 6.9 mph - N/A   Clear
3:15 AM 16.7 °F 8.3 °F 6.8 °F 65% 30.34 in 10.0 mi North 5.8 mph - N/A   Clear
3:35 AM 16.3 °F 6.7 °F 5.7 °F 63% 30.33 in 10.0 mi NNW 6.9 mph - N/A   Clear
3:55 AM 16.0 °F 8.8 °F 6.4 °F 66% 30.33 in 10.0 mi North 4.6 mph - N/A   Clear
4:15 AM 15.8 °F 8.6 °F 6.4 °F 67% 30.33 in 10.0 mi North 4.6 mph - N/A   Clear
4:35 AM 15.6 °F 7.0 °F 6.6 °F 68% 30.33 in 10.0 mi North 5.8 mph - N/A   Clear
4:55 AM 15.6 °F 10.0 °F 7.3 °F 70% 30.33 in 10.0 mi North 3.5 mph - N/A   Clear
5:15 AM 15.4 °F 6.8 °F 7.3 °F 70% 30.33 in 10.0 mi North 5.8 mph - N/A   Clear
5:35 AM 15.4 °F 9.8 °F 7.7 °F 71% 30.33 in 10.0 mi North 3.5 mph - N/A   Clear
5:55 AM 15.3 °F - 7.9 °F 73% 30.33 in 10.0 mi Calm Calm - N/A   Clear
6:15 AM 15.3 °F 9.6 °F 8.1 °F 73% 30.33 in 10.0 mi North 3.5 mph - N/A   Clear
6:35 AM 14.9 °F - 8.4 °F 76% 30.33 in 10.0 mi Calm Calm - N/A   Clear
6:55 AM 14.9 °F 9.2 °F 8.6 °F 76% 30.33 in 10.0 mi NNE 3.5 mph - N/A   Clear
7:15 AM 14.9 °F 9.2 °F 8.6 °F 76% 30.34 in 10.0 mi NNE 3.5 mph - N/A   Clear
7:35 AM 14.9 °F 9.2 °F 8.4 °F 76% 30.34 in 10.0 mi NNE 3.5 mph - N/A   Clear
7:55 AM 14.9 °F - 8.1 °F 74% 30.34 in 10.0 mi Calm Calm - N/A   Clear
8:15 AM 14.9 °F 9.2 °F 8.4 °F 76% 30.34 in 10.0 mi NNE 3.5 mph - N/A   Clear
8:35 AM 15.3 °F - 8.6 °F 75% 30.35 in 10.0 mi Calm Calm - N/A   Clear
8:55 AM 15.3 °F 9.6 °F 8.4 °F 74% 30.36 in 10.0 mi NNE 3.5 mph - N/A   Clear
9:15 AM 15.8 °F 10.2 °F 7.9 °F 71% 30.36 in 10.0 mi North 3.5 mph - N/A   Clear
9:35 AM 16.3 °F 6.7 °F 8.6 °F 72% 30.36 in 10.0 mi NE 6.9 mph - N/A   Mostly Cloudy
9:55 AM 17.1 °F 7.6 °F 8.6 °F 69% 30.38 in 10.0 mi North 6.9 mph - N/A   Overcast
10:15 AM 17.2 °F 8.9 °F 8.2 °F 68% 30.39 in 10.0 mi NNE 5.8 mph - N/A   Overcast
10:35 AM 17.6 °F 10.7 °F 8.2 °F 67% 30.40 in 10.0 mi NNW 4.6 mph - N/A   Overcast
10:55 AM 17.8 °F 7.5 °F 8.6 °F 67% 30.41 in 10.0 mi NNW 8.1 mph - N/A   Overcast
11:15 AM 19.2 °F 9.3 °F 8.8 °F 64% 30.43 in 10.0 mi NNW 8.1 mph - N/A   Mostly Cloudy
11:35 AM 19.8 °F 13.2 °F 8.2 °F 61% 30.42 in 10.0 mi North 4.6 mph - N/A   Scattered Clouds
11:55 AM 20.1 °F 12.3 °F 7.2 °F 57% 30.42 in 10.0 mi NNW 5.8 mph - N/A   Mostly Cloudy
12:15 PM 19.4 °F 12.8 °F 6.4 °F 57% 30.40 in 10.0 mi North 4.6 mph - N/A   Overcast
12:35 PM 19.4 °F 14.3 °F 6.4 °F 57% 30.39 in 10.0 mi NNW 3.5 mph - N/A   Overcast
12:55 PM 19.8 °F 14.7 °F 6.1 °F 55% 30.39 in 10.0 mi North 3.5 mph - N/A   Overcast
1:15 PM 20.3 °F 12.5 °F 6.8 °F 56% 30.39 in 10.0 mi North 5.8 mph - N/A   Overcast
1:35 PM 20.3 °F 11.5 °F 7.2 °F 57% 30.39 in 10.0 mi North 6.9 mph - N/A   Overcast
1:55 PM 20.1 °F 10.3 °F 7.0 °F 57% 30.39 in 10.0 mi North 8.1 mph - N/A   Overcast
2:15 PM 19.9 °F 10.1 °F 7.7 °F 59% 30.38 in 10.0 mi North 8.1 mph - N/A   Overcast
2:35 PM 20.7 °F 11.9 °F 8.6 °F 60% 30.39 in 10.0 mi North 6.9 mph - N/A   Overcast
2:55 PM 20.1 °F 11.3 °F 10.6 °F 67% 30.39 in 10.0 mi NNW 6.9 mph - N/A   Overcast
3:15 PM 20.1 °F 10.3 °F 10.2 °F 66% 30.39 in 10.0 mi NNW 8.1 mph - N/A   Overcast
3:35 PM 20.1 °F 10.3 °F 10.4 °F 66% 30.39 in 10.0 mi NNW 8.1 mph - N/A   Overcast
3:55 PM 20.3 °F 10.6 °F 11.8 °F 70% 30.39 in 10.0 mi NNW 8.1 mph - N/A Snow Light Snow
4:15 PM 19.9 °F 11.1 °F 12.2 °F 72% 30.38 in 10.0 mi North 6.9 mph - N/A   Overcast
4:35 PM 19.4 °F 9.5 °F 12.4 °F 74% 30.39 in 10.0 mi NNW 8.1 mph - N/A   Overcast
4:55 PM 19.2 °F 11.3 °F 12.7 °F 76% 30.39 in 10.0 mi North 5.8 mph - N/A   Mostly Cloudy
5:15 PM 18.5 °F 9.3 °F 12.4 °F 77% 30.39 in 10.0 mi NNW 6.9 mph - N/A   Scattered Clouds
5:35 PM 17.6 °F 8.2 °F 12.7 °F 81% 30.40 in 10.0 mi NW 6.9 mph - N/A   Clear
5:55 PM 17.2 °F 8.9 °F 12.0 °F 80% 30.40 in 10.0 mi NW 5.8 mph - N/A   Clear
6:15 PM 16.5 °F - 11.8 °F 82% 30.40 in 10.0 mi Calm Calm - N/A   Clear
6:35 PM 15.1 °F 9.4 °F 11.3 °F 85% 30.40 in 10.0 mi NW 3.5 mph - N/A   Clear
6:55 PM 15.4 °F - 11.7 °F 85% 30.39 in 10.0 mi Calm Calm - N/A   Clear
7:15 PM 15.6 °F 10.0 °F 12.2 °F 86% 30.40 in 10.0 mi NW 3.5 mph - N/A   Clear
7:35 PM 14.9 °F 9.2 °F 11.7 °F 87% 30.40 in 10.0 mi NW 3.5 mph - N/A   Clear
7:55 PM 14.9 °F - 11.3 °F 86% 30.40 in 10.0 mi Calm Calm - N/A   Clear
8:15 PM 15.1 °F 9.4 °F 11.1 °F 84% 30.40 in 10.0 mi North 3.5 mph - N/A   Clear
8:35 PM 14.9 °F 9.2 °F 10.9 °F 84% 30.40 in 10.0 mi North 3.5 mph - N/A   Mostly Cloudy
8:55 PM 14.9 °F - 11.1 °F 85% 30.41 in 10.0 mi Calm Calm - N/A   Overcast
9:15 PM 14.9 °F - 10.9 °F 84% 30.40 in 10.0 mi Calm Calm - N/A   Overcast
9:35 PM 14.9 °F - 11.1 °F 85% 30.39 in 10.0 mi Calm Calm - N/A   Overcast
9:55 PM 15.3 °F - 11.1 °F 84% 30.40 in 10.0 mi Calm Calm - N/A   Overcast
10:15 PM 15.3 °F - 10.9 °F 83% 30.40 in 10.0 mi Calm Calm - N/A   Overcast
10:35 PM 13.8 °F 8.0 °F 10.2 °F 86% 30.40 in 10.0 mi WNW 3.5 mph - N/A   Mostly Cloudy
10:55 PM 14.0 °F 8.2 °F 10.9 °F 88% 30.40 in 10.0 mi West 3.5 mph - N/A   Mostly Cloudy
11:15 PM 14.4 °F 6.9 °F 11.3 °F 88% 30.40 in 10.0 mi West 4.6 mph - N/A Snow Light Snow
11:35 PM 14.0 °F 6.5 °F 10.9 °F 88% 30.40 in 10.0 mi West 4.6 mph - N/A Snow Light Snow
11:55 PM 15.1 °F 7.7 °F 12.4 °F 89% 30.40 in 10.0 mi West 4.6 mph - N/A Snow Light Snow